TimeEST,TemperatureF,Dew PointF,Humidity,Sea Level PressureIn,VisibilityMPH,Wind Direction,Wind SpeedMPH,Gust SpeedMPH,PrecipitationIn,Events,Conditions,WindDirDegrees,DateUTC
12:54 AM,39.9,36.0,86,30.28,10.0,Calm,Calm,-,N/A,,Clear,0,2011-11-13 05:54:00
1:54 AM,37.9,36.0,93,30.30,10.0,Calm,Calm,-,N/A,,Clear,0,2011-11-13 06:54:00
2:54 AM,39.0,37.0,93,30.28,10.0,Calm,Calm,-,N/A,,Clear,0,2011-11-13 07:54:00
3:54 AM,41.0,37.9,89,30.27,10.0,Calm,Calm,-,N/A,,Clear,0,2011-11-13 08:54:00
4:54 AM,42.1,39.0,89,30.28,10.0,Calm,Calm,-,N/A,,Clear,0,2011-11-13 09:54:00
5:54 AM,39.0,37.9,96,30.27,10.0,Calm,Calm,-,N/A,,Clear,0,2011-11-13 10:54:00
7:54 AM,44.1,39.9,85,30.28,9.0,Calm,Calm,-,N/A,,Clear,0,2011-11-13 12:54:00
8:54 AM,55.0,45.0,69,30.30,10.0,SW,8.1,-,N/A,,Clear,220,2011-11-13 13:54:00
9:54 AM,60.1,45.0,57,30.31,10.0,WSW,10.4,-,N/A,,Clear,240,2011-11-13 14:54:00
10:54 AM,66.0,48.0,52,30.29,10.0,SW,8.1,-,N/A,,Clear,230,2011-11-13 15:54:00
11:54 AM,68.0,48.0,49,30.26,10.0,SW,17.3,-,N/A,,Clear,230,2011-11-13 16:54:00
12:54 PM,66.9,46.9,49,30.25,10.0,WSW,13.8,-,N/A,,Clear,250,2011-11-13 17:54:00
1:54 PM,66.9,48.9,52,30.22,10.0,SW,8.1,-,N/A,,Clear,230,2011-11-13 18:54:00
2:54 PM,66.0,50.0,56,30.20,10.0,SW,8.1,-,N/A,,Clear,230,2011-11-13 19:54:00
3:54 PM,66.0,51.1,59,30.18,10.0,South,3.5,-,N/A,,Clear,190,2011-11-13 20:54:00
4:54 PM,64.0,51.1,63,30.17,10.0,SSW,3.5,-,N/A,,Clear,200,2011-11-13 21:54:00
5:54 PM,61.0,52.0,72,30.15,10.0,South,3.5,-,N/A,,Clear,180,2011-11-13 22:54:00
6:54 PM,59.0,52.0,78,30.17,10.0,Calm,Calm,-,N/A,,Clear,0,2011-11-13 23:54:00
7:54 PM,57.9,52.0,81,30.19,10.0,Calm,Calm,-,N/A,,Clear,0,2011-11-14 00:54:00
8:54 PM,57.9,52.0,81,30.18,10.0,Calm,Calm,-,N/A,,Clear,0,2011-11-14 01:54:00
10:54 PM,57.9,53.1,84,30.17,10.0,South,4.6,-,N/A,,Clear,180,2011-11-14 03:54:00
11:54 PM,59.0,53.1,81,30.18,10.0,SSW,4.6,-,N/A,,Clear,200,2011-11-14 04:54:00